User: anonymous   Login
Location: Unspecified
(0.0000°N, 0.0000°E)
Time: 04:31:33
(UTC+00:00)
Language:

UBAKUSAT - Orbit

View from above orbital plane
View from above orbital plane
View from above satellite
View from above satellite

Ground track
Ground track

The orbit data is extracted from the following two-line orbital elements,

1 43466U 98067NP  18350.76411959  .00008513  00000-0  10948-3 0  9994
2 43466  51.6382 183.4479 0001384 134.1597 225.9510 15.59985366 34156
Epoch (UTC): 16 December 2018 18:20:19
Eccentricity: 0.0001384
inclination: 51.6382°
perigee height: 387 km
apogee height: 388 km
right ascension of ascending node: 183.4479°
argument of perigee: 134.1597°
revolutions per day: 15.59985366
mean anomaly at epoch: 225.9510°
orbit number at epoch: 3415

The dashed part of the orbit path shows where the satellite is in the earth's shadow,  

DLR